Abbotsford, British Columbia

11:55 PM PST on January 15, 2018 (GMT -0800)
Abbotsford

Weather History for CYXX - October, 2012

Change the Weather History Date:

Saturday, October 20, 2012

  Actual Average Record
Temperature  
Mean Temperature 44 °F -  
Max Temperature 50 °F 52 °F 68 °F (2010)
Min Temperature 39 °F 38 °F 32 °F (1997)
Degree Days  
Heating Degree Days 20    
Moisture  
Dew Point 38 °F    
Average Humidity 81    
Maximum Humidity 94    
Minimum Humidity 60    
Precipitation  
Precipitation 0.39 in 0.26 in - ()
Sea Level Pressure  
Sea Level Pressure 29.84 in    
Wind  
Wind Speed 9 mph ()    
Max Wind Speed 16 mph    
Max Gust Speed 22 mph    
Visibility 13.1 miles    
Events Rain    
Averages and records for this station are not official NWS values.
T = Trace of Precipitation, MM = Missing Value Source: Averaged Metar Reports

Daily Weather History Graph

Daily Weather History Graph

Search for Another Location

Airport or City:

Trip Planner

Search our weather history database for the weather conditions in past years. The results will help you decide how hot, cold, wet, or windy it might be!

Date:

Astronomy

Oct. 20, 2012 Rise Set
Actual Time 7:38 AM PDT 6:08 PM PDT
Civil Twilight 7:06 AM PDT 6:40 PM PDT
Nautical Twilight 6:29 AM PDT 7:17 PM PDT
Astronomical Twilight 5:52 AM PDT 7:54 PM PDT
Moon 1:34 PM PDT (10/20) 10:47 PM PDT (10/20)
Length of Visible Light 11h 34m
Length of Day
10h 29m
Waxing Crescent, 35% of the Moon is Illuminated
Oct 20
Waxing Crescent
Oct 21
First Quarter
Oct 29
Full
Nov 6
Last Quarter
Nov 13
New

Hourly Weather History & Observations

Time (PDT) Temp. Windchill Dew Point Humidity Pressure Visibility Wind Dir Wind Speed Gust Speed Precip Events Conditions
12:00 AM 44.6 °F 39.2 °F 41.0 °F 87% 29.75 in 10.0 mi South 10.4 mph - N/A   Mostly Cloudy
1:00 AM 44.6 °F 38.8 °F 42.8 °F 93% 29.76 in 10.0 mi South 11.5 mph - N/A   Scattered Clouds
2:00 AM 44.6 °F 40.2 °F 41.0 °F 87% 29.77 in 10.0 mi South 8.1 mph - N/A   Scattered Clouds
3:00 AM 44.6 °F 40.2 °F 41.0 °F 87% 29.79 in 10.0 mi South 8.1 mph - N/A   Scattered Clouds
4:00 AM 42.8 °F 37.5 °F 39.2 °F 87% 29.79 in 10.0 mi South 9.2 mph - N/A   Scattered Clouds
5:00 AM 43 °F - 39 °F 81% 29.80 in 10 mi South 9.2 mph - -   Partly Cloudy
5:00 AM 42.8 °F 37.5 °F 39.2 °F 87% 29.80 in 10.0 mi South 9.2 mph - N/A   Scattered Clouds
6:00 AM 42.8 °F 37.5 °F 39.2 °F 87% 29.81 in 10.0 mi South 9.2 mph - N/A   Scattered Clouds
7:00 AM 44.6 °F 39.2 °F 37.4 °F 76% 29.82 in 10.0 mi South 10.4 mph - N/A   Partly Cloudy
8:00 AM 42.8 °F 36.6 °F 33.8 °F 70% 29.82 in 15.0 mi South 11.5 mph - N/A   Mostly Cloudy
9:00 AM 44.6 °F 38.4 °F 37.4 °F 76% 29.83 in 20.0 mi South 12.7 mph - N/A   Mostly Cloudy
10:00 AM 46.4 °F 41.9 °F 39.2 °F 76% 29.84 in 20.0 mi South 9.2 mph - N/A   Mostly Cloudy
11:00 AM 47 °F - 37 °F 60% 29.85 in 19 mi SSW 16.1 mph - -   Mostly Cloudy
11:00 AM 46.4 °F 39.8 °F 37.4 °F 71% 29.85 in 20.0 mi SSW 16.1 mph 21.9 mph N/A   Mostly Cloudy
11:21 AM 46.4 °F 40.7 °F 39.2 °F 76% 29.85 in 20.0 mi SW 12.7 mph 19.6 mph N/A Rain Light Rain Showers
12:00 PM 48.2 °F - 39.2 °F 71% 29.86 in 20.0 mi South 16.1 mph - N/A   Mostly Cloudy
1:00 PM 48.2 °F - 39.2 °F 71% 29.85 in 20.0 mi South 15.0 mph 21.9 mph N/A   Mostly Cloudy
2:00 PM 48.2 °F - 37.4 °F 66% 29.86 in 20.0 mi SSW 15.0 mph - N/A   Overcast
2:08 PM 48.2 °F - 39.2 °F 71% 29.86 in 20.0 mi South 15.0 mph 20.7 mph N/A Rain Light Rain Showers
3:00 PM 48.2 °F - 37.4 °F 66% 29.86 in 20.0 mi South 12.7 mph - N/A   Overcast
3:41 PM 46.4 °F 41.5 °F 39.2 °F 76% 29.86 in 15.0 mi SSE 10.4 mph - N/A Rain Light Rain Showers
4:00 PM 46.4 °F 42.4 °F 39.2 °F 76% 29.86 in 15.0 mi SSW 8.1 mph - N/A Rain Light Rain Showers
5:00 PM 45 °F - 37 °F 66% 29.86 in 19 mi WSW 9.2 mph - - Rain Light Rain Showers
5:00 PM 44.6 °F 39.2 °F 37.4 °F 76% 29.85 in 20.0 mi WSW 10.4 mph - N/A Rain Light Rain Showers
6:00 PM 44.6 °F - 35.6 °F 71% 29.84 in 15.0 mi Calm Calm - N/A Rain Light Rain Showers
7:00 PM 41.0 °F 35.8 °F 39.2 °F 93% 29.86 in 8.0 mi South 8.1 mph - N/A Rain Light Rain
7:45 PM 41.0 °F 33.5 °F 39.2 °F 93% 29.86 in 5.0 mi ESE 13.8 mph - N/A Rain Light Rain Showers
8:00 PM 39.2 °F 32.0 °F 37.4 °F 93% 29.85 in 7.0 mi ESE 11.5 mph 20.7 mph N/A Rain Light Rain Showers
8:51 PM 39.2 °F 35.9 °F 37.4 °F 93% 29.86 in 2.5 mi ESE 4.6 mph - N/A Rain Rain Showers
9:00 PM 39.2 °F 33.6 °F 37.4 °F 93% 29.86 in 7.0 mi East 8.1 mph - N/A Rain Rain Showers
10:00 PM 39.2 °F 37.0 °F 37.4 °F 93% 29.86 in 4.0 mi NNE 3.5 mph - N/A Rain Light Rain Showers
10:39 PM 39.2 °F 37.0 °F 37.4 °F 93% 29.86 in 7.0 mi ENE 3.5 mph - N/A   Overcast
11:00 PM 39 °F - 38 °F 94% 29.86 in 10 mi NE 5.8 mph - - Rain Light Rain Showers
11:00 PM 39.2 °F 35.0 °F 37.4 °F 93% 29.86 in 10.0 mi NE 5.8 mph - N/A   Overcast
11:47 PM 39.2 °F 35.0 °F 37.4 °F 93% 29.86 in 10.0 mi ENE 5.8 mph - N/A Rain Light Rain Showers